"2009-12-31 00:00:00",1549724,4.361,161.4,6.263,1.144,-0.256,98.75032,-3.884,-2.82,52.55,0,109.4,13.69,-3.15,123.4
"2009-12-31 00:00:30",1549725,4.717,163.2,6.143,1.17,1.105,98.7534,-3.876,-2.621,52.65,0,109.4,13.69,-3.14,125.2
"2009-12-31 00:01:00",1549726,4.951,167,5.616,1.139,1.804,98.76041,-3.858,-2.622,52.29,0,109.4,13.69,-3.12,129.0
"2009-12-31 00:01:30",1549727,5.694,169.5,4.619,0.624,2.638,98.76493,-3.847,-2.582,51.47,0,109.4,13.69,-3.11,131.5
"2009-12-31 00:02:00",1549728,4.725,163.5,8.63,1.152,1.162,98.77344,-3.825,-2.579,51.75,0,109.4,13.69,-3.09,125.5
"2009-12-31 00:02:30",1549729,4.989,168.7,6.498,1.011,1.523,98.79067,-3.781,-2.585,51.83,0,109.4,13.69,-3.04,130.7
"2009-12-31 00:03:00",1549730,5.047,171.5,5.344,1.016,1.875,98.79523,-3.77,-2.583,52.4,0,109.4,13.69,-3.03,133.5
"2009-12-31 00:03:30",1549731,4.343,165.1,3.973,1.101,0.14,98.79887,-3.76,-2.635,52.59,0,109.4,13.69,-3.02,127.1
"2009-12-31 00:04:00",1549732,4.389,167.9,6.751,1.231,0.689,98.80112,-3.755,-2.564,53,0,109.4,13.69,-3.02,129.9
"2009-12-31 00:04:30",1549733,4.461,166.1,6.5,1.148,0.989,98.80112,-3.755,-2.547,53.29,0,109.4,13.69,-3.02,128.1
"2009-12-31 00:05:00",1549734,5.185,168.7,6.157,1.026,1.536,98.80056,-3.756,-2.554,53.3,0,109.4,13.7,-3.02,130.7
"2009-12-31 00:05:30",1549735,5.268,171.3,4.964,1.041,1.746,98.80168,-3.753,-2.587,54.29,0,109.4,13.69,-3.01,133.3
"2009-12-31 00:06:00",1549736,5.268,169.4,5.529,1.037,1.617,98.80224,-3.752,-2.522,54.59,0,109.4,13.69,-3.01,131.4
"2009-12-31 00:06:30",1549737,5.315,170.8,5.955,1.049,1.297,98.80309,-3.75,-2.582,53.44,0,109.4,13.69,-3.01,132.8
"2009-12-31 00:07:00",1549738,4.875,169.5,6.17,1.188,0.822,98.8028,-3.75,-2.529,53.42,0,109.4,13.69,-3.01,131.5
"2009-12-31 00:07:30",1549739,5.702,174.5,5.301,0.911,1.76,98.80447,-3.746,-2.563,54.95,0,109.4,13.69,-3.01,136.5
"2009-12-31 00:08:00",1549740,5.4,173.9,5.781,1.136,1.179,98.80222,-3.752,-2.591,55.72,0,109.4,13.69,-3.01,135.9
"2009-12-31 00:08:30",1549741,5.686,173.5,5.345,1.06,1.875,98.80106,-3.755,-2.523,56.42,0,109.4,13.69,-3.02,135.5
"2009-12-31 00:09:00",1549742,5.927,173.8,2.006,0.884,2.492,98.78973,-3.784,-2.453,56.13,0,109.4,13.69,-3.04,135.8
"2009-12-31 00:09:30",1549743,5.991,173.7,2.579,0.633,2.391,98.78377,-3.799,-2.505,55.58,0,109.4,13.69,-3.06,135.7
"2009-12-31 00:10:00",1549744,4.833,166.2,6.315,1.212,-0.136,98.77695,-3.816,-2.601,54.99,0,109.4,13.69,-3.08,128.2
"2009-12-31 00:10:30",1549745,5.033,167,6.002,1.171,0.212,98.77551,-3.82,-2.633,54.79,0,109.4,13.69,-3.08,129.0
"2009-12-31 00:11:00",1549746,5.15,166.6,6.022,1.194,0.653,98.77495,-3.821,-2.588,55.1,0,109.4,13.69,-3.08,128.6
"2009-12-31 00:11:30",1549747,5.361,166.2,6.475,1.096,1.556,98.77523,-3.82,-2.566,55.23,0,109.4,13.7,-3.08,128.2
"2009-12-31 00:12:00",1549748,5.751,167,3.304,0.732,2.458,98.77523,-3.82,-2.482,55.35,0,109.4,13.7,-3.08,129.0
"2009-12-31 00:12:30",1549749,5.789,163.8,2.937,0.622,2.366,98.77551,-3.82,-2.504,55.23,0,109.4,13.7,-3.08,125.8
"2009-12-31 00:13:00",1549750,5.301,159.8,5.958,1.062,1.26,98.77551,-3.82,-2.556,55.17,0,109.3,13.7,-3.08,121.8
"2009-12-31 00:13:30",1549751,4.66,154.6,5.845,1.151,-0.516,98.77551,-3.82,-2.729,55.04,0,109.4,13.7,-3.08,116.6
"2009-12-31 00:14:00",1549752,5.093,154.8,6.538,1.095,0.653,98.77551,-3.82,-2.639,55.17,0,109.4,13.7,-3.08,116.8
"2009-12-31 00:14:30",1549753,5.32,154.4,5.819,1.104,1.689,98.77494,-3.821,-2.568,55.42,0,109.4,13.7,-3.08,116.4
"2009-12-31 00:15:00",1549754,6.044,157.3,3.347,0.649,2.637,98.76275,-3.852,-2.529,55.69,0,109.4,13.7,-3.11,119.3
"2009-12-31 00:15:30",1549755,6.028,156.4,3.925,0.673,2.797,98.74886,-3.888,-2.538,55.93,0,109.4,13.7,-3.15,118.4
"2009-12-31 00:16:00",1549756,5.919,154.3,3.281,0.578,2.336,98.74178,-3.906,-2.525,56.07,0,109.3,13.7,-3.17,116.3
"2009-12-31 00:16:30",1549757,5.444,149.5,5.209,1.036,1.25,98.74149,-3.906,-2.596,56.01,0,109.3,13.7,-3.17,111.5
"2009-12-31 00:17:00",1549758,4.735,143,5.649,1.103,0.04,98.74149,-3.906,-2.636,55.95,0,109.3,13.7,-3.17,105.0
"2009-12-31 00:17:30",1549759,4.184,143.5,5.308,1.137,-0.898,98.74149,-3.906,-2.773,55.99,0,109.3,13.7,-3.17,105.5
"2009-12-31 00:18:00",1549760,5.309,150.3,4.326,0.845,2.36,98.74093,-3.908,-2.586,56.28,0,109.3,13.7,-3.17,112.3
"2009-12-31 00:18:30",1549761,5.307,151.7,5.995,0.846,2.094,98.73667,-3.919,-2.65,56.25,0,109.4,13.7,-3.18,113.7
"2009-12-31 00:19:00",1549762,5.454,154.2,6.055,0.66,2.592,98.71627,-3.971,-2.58,56.38,0,109.3,13.7,-3.23,116.2
"2009-12-31 00:19:30",1549763,5.089,149.3,4.001,0.695,2.204,98.70805,-3.992,-2.589,56.48,0,109.3,13.7,-3.25,111.3
"2009-12-31 00:20:00",1549764,4.224,145.9,6.258,1.131,0.531,98.70748,-3.993,-2.729,56.3,0,109.3,13.7,-3.26,107.9
"2009-12-31 00:20:30",1549765,3.206,146.3,11.95,1.012,-1.053,98.70748,-3.993,-2.744,56.18,0,109.3,13.7,-3.26,108.3
"2009-12-31 00:21:00",1549766,4.365,150.8,7.865,1.17,0.47,98.70748,-3.993,-2.769,56.29,0,109.3,13.7,-3.26,112.8
"2009-12-31 00:21:30",1549767,5.043,151.6,5.598,0.928,1.844,98.70748,-3.993,-2.696,56.58,0,109.3,13.7,-3.26,113.6
"2009-12-31 00:22:00",1549768,4.823,149.1,4.5,0.914,2.287,98.70408,-4.002,-2.667,56.72,0,109.3,13.7,-3.26,111.1
"2009-12-31 00:22:30",1549769,5.013,148.3,3.821,0.759,2.501,98.68623,-4.047,-2.649,56.73,0,109.3,13.7,-3.31,110.3
"2009-12-31 00:23:00",1549770,5.204,146.5,3.68,0.507,2.558,98.678,-4.068,-2.653,56.78,0,109.3,13.7,-3.33,108.5
"2009-12-31 00:23:30",1549771,5.107,144.1,3.218,0.641,1.954,98.67346,-4.08,-2.675,56.89,0,109.3,13.7,-3.34,106.1
"2009-12-31 00:24:00",1549772,3.496,136.8,5.457,0.938,-0.99,98.67346,-4.08,-2.742,56.86,0,109.3,13.7,-3.34,98.8
"2009-12-31 00:24:30",1549773,4.186,135.8,6.366,1.203,-0.608,98.67346,-4.08,-2.961,56.71,0,109.3,13.7,-3.34,97.8
"2009-12-31 00:25:00",1549774,3.874,134.6,6.764,1.195,-0.64,98.67346,-4.08,-2.891,56.88,0,109.3,13.7,-3.34,96.6
"2009-12-31 00:25:30",1549775,5.102,142.5,4.775,0.895,2.084,98.67233,-4.083,-2.739,57.21,0,109.3,13.7,-3.34,104.5
"2009-12-31 00:26:00",1549776,5.237,143.2,3.058,0.645,2.947,98.66325,-4.106,-2.696,57.42,0,109.3,13.7,-3.37,105.2
"2009-12-31 00:26:30",1549777,5.304,142.2,3.53,0.76,2.953,98.64257,-4.158,-2.718,57.51,0,109.3,13.7,-3.42,104.2
"2009-12-31 00:27:00",1549778,5.429,145.2,4.148,0.665,2.606,98.63974,-4.166,-2.719,57.63,0,109.3,13.7,-3.43,107.2
"2009-12-31 00:27:30",1549779,5.471,146.3,3.872,0.662,2.352,98.63945,-4.166,-2.751,57.54,0,109.3,13.71,-3.43,108.3
"2009-12-31 00:28:00",1549780,5.611,146.8,3.824,0.501,2.199,98.63945,-4.166,-2.763,57,0,109.3,13.71,-3.43,108.8
"2009-12-31 00:28:30",1549781,4.161,138,5.896,1.058,-0.706,98.63945,-4.166,-2.943,56.25,0,109.3,13.7,-3.43,100.0
"2009-12-31 00:29:00",1549782,4.283,137.9,5.576,1.15,-0.306,98.63945,-4.166,-2.918,55.94,0,109.3,13.71,-3.43,99.9
"2009-12-31 00:29:30",1549783,4.477,135,5.264,1.127,0.143,98.63945,-4.166,-2.922,55.88,0,109.3,13.71,-3.43,97.0
"2009-12-31 00:30:00",1549784,5.566,139.5,4.092,0.642,2.807,98.63945,-4.166,-2.795,55.88,0,109.3,13.71,-3.43,101.5
"2009-12-31 00:30:30",1549785,5.614,139.6,3.411,0.481,2.841,98.63945,-4.166,-2.772,55.93,0,109.3,13.71,-3.43,101.6
"2009-12-31 00:31:00",1549786,5.462,138.9,2.406,0.734,2.725,98.63945,-4.166,-2.783,55.95,0,109.3,13.71,-3.43,100.9
"2009-12-31 00:31:30",1549787,5.504,136.9,3.253,0.714,2.471,98.63945,-4.166,-2.804,55.86,0,109.3,13.71,-3.43,98.9
"2009-12-31 00:32:00",1549788,5.556,135.1,3.327,0.638,2.239,98.63945,-4.166,-2.811,55.8,0,109.3,13.71,-3.43,97.1
"2009-12-31 00:32:30",1549789,5.114,133,4.517,1.055,1.42,98.63945,-4.166,-2.781,55.72,0,109.3,13.71,-3.43,95.0
"2009-12-31 00:33:00",1549790,4.558,130.2,5.658,1.107,0.101,98.63945,-4.166,-2.917,55.62,0,109.3,13.71,-3.43,92.2
"2009-12-31 00:33:30",1549791,4.105,128.7,5.7,1.083,-0.578,98.63945,-4.166,-3.002,55.58,0,109.3,13.71,-3.43,90.7
"2009-12-31 00:34:00",1549792,4.545,131.1,5.858,1.207,0.456,98.63945,-4.166,-2.881,55.72,0,109.3,13.71,-3.43,93.1
"2009-12-31 00:34:30",1549793,5.317,135.5,4.044,0.891,2.458,98.63945,-4.166,-2.795,55.8,0,109.3,13.71,-3.43,97.5
"2009-12-31 00:35:00",1549794,5.442,137.4,3.175,0.661,2.63,98.63945,-4.166,-2.82,55.8,0,109.3,13.71,-3.43,99.4
"2009-12-31 00:35:30",1549795,5.444,138.3,3.926,0.519,2.638,98.63945,-4.166,-2.801,55.78,0,109.3,13.71,-3.43,100.3
"2009-12-31 00:36:00",1549796,5.266,141.1,2.588,0.709,2.396,98.63973,-4.166,-2.88,55.96,0,109.3,13.71,-3.43,103.1
"2009-12-31 00:36:30",1549797,4.862,140.2,5.247,1.034,1.24,98.63945,-4.166,-2.857,56.39,0,109.3,13.71,-3.43,102.2
"2009-12-31 00:37:00",1549798,3.664,137,3.996,0.989,-1.312,98.63945,-4.166,-3.004,56.7,0,109.3,13.71,-3.43,99.0
"2009-12-31 00:37:30",1549799,4.848,148.3,4.761,1.057,2.232,98.64001,-4.165,-2.817,57.12,0,109.3,13.71,-3.43,110.3
"2009-12-31 00:38:00",1549800,4.843,149.1,5.67,1.053,2.298,98.63974,-4.166,-2.829,57.08,0,109.3,13.71,-3.43,111.1
"2009-12-31 00:38:30",1549801,5.039,151.5,5.319,0.812,2.505,98.63973,-4.166,-2.788,57.13,0,109.3,13.71,-3.43,113.5
"2009-12-31 00:39:00",1549802,4.636,154.7,4.879,1.044,2.211,98.64198,-4.16,-2.851,57.11,0,109.3,13.71,-3.42,116.7
"2009-12-31 00:39:30",1549803,4.346,154.4,5.233,1.129,1.516,98.64256,-4.158,-2.814,57.06,0,109.3,13.71,-3.42,116.4
"2009-12-31 00:40:00",1549804,4.126,155.4,5.833,1.11,1.225,98.64368,-4.155,-2.865,56.83,0,109.3,13.71,-3.42,117.4
"2009-12-31 00:40:30",1549805,4.275,156.7,5.631,1.075,1.124,98.64735,-4.146,-2.894,56.56,0,109.4,13.71,-3.41,118.7
"2009-12-31 00:41:00",1549806,3.975,156.4,6.254,1.166,0.842,98.64681,-4.148,-2.823,56.56,0,109.3,13.71,-3.41,118.4
"2009-12-31 00:41:30",1549807,4.839,161.3,3.686,0.641,2.094,98.65189,-4.135,-2.805,56.61,0,109.3,13.71,-3.40,123.3
"2009-12-31 00:42:00",1549808,4.384,159.6,4.924,1.044,1.326,98.65104,-4.137,-2.874,56.44,0,109.3,13.71,-3.40,121.6
"2009-12-31 00:42:30",1549809,4.263,157.1,5.341,1.058,1.338,98.65302,-4.132,-2.816,56.2,0,109.3,13.71,-3.39,119.1
"2009-12-31 00:43:00",1549810,3.888,153.6,6.361,1.157,0.383,98.65752,-4.12,-2.862,55.96,0,109.3,13.71,-3.38,115.6
"2009-12-31 00:43:30",1549811,4.297,156.1,5.666,1.097,1.412,98.65612,-4.124,-2.812,55.94,0,109.3,13.71,-3.39,118.1
"2009-12-31 00:44:00",1549812,4.404,154.6,5.619,1.059,1.399,98.65919,-4.116,-2.855,55.9,0,109.3,13.72,-3.38,116.6
"2009-12-31 00:44:30",1549813,3.92,151,5.635,1.184,0.259,98.65723,-4.121,-2.949,55.84,0,109.3,13.72,-3.38,113.0
"2009-12-31 00:45:00",1549814,4.052,149.4,5.955,1.177,0.627,98.66232,-4.108,-2.835,56.06,0,109.3,13.72,-3.37,111.4
"2009-12-31 00:45:30",1549815,4.231,151.3,5.286,1.107,1.488,98.65952,-4.115,-2.814,56.17,0,109.3,13.72,-3.38,113.3
"2009-12-31 00:46:00",1549816,4.174,148.8,5.238,1.122,1.29,98.66004,-4.114,-2.761,56.31,0,109.3,13.72,-3.38,110.8
"2009-12-31 00:46:30",1549817,4.101,145.4,5.634,1.127,1.02,98.66062,-4.112,-2.841,56.38,0,109.3,13.72,-3.37,107.4
"2009-12-31 00:47:00",1549818,3.865,142.1,6.348,1.143,0.238,98.6612,-4.111,-2.865,56.53,0,109.3,13.72,-3.37,104.1
"2009-12-31 00:47:30",1549819,3.129,137.7,5.782,1.125,-0.525,98.66314,-4.106,-2.871,56.69,0,109.3,13.73,-3.37,99.7
"2009-12-31 00:48:00",1549820,3.771,139,5.664,1.134,0.686,98.66314,-4.106,-2.846,56.73,0,109.3,13.73,-3.37,101.0
"2009-12-31 00:48:30",1549821,3.542,138.6,6.119,1.177,0.9,98.65916,-4.116,-2.793,56.57,0,109.3,13.73,-3.38,100.6
"2009-12-31 00:49:00",1549822,3.706,141,5.206,1.151,1.491,98.65804,-4.119,-2.797,56.3,0,109.3,13.73,-3.38,103.0
"2009-12-31 00:49:30",1549823,3.834,141.9,5.341,1.01,1.423,98.65717,-4.121,-2.784,56.41,0,109.3,13.73,-3.38,103.9
"2009-12-31 00:50:00",1549824,2.563,137.6,4.389,0.93,-0.863,98.65067,-4.138,-2.949,56.38,0,109.3,13.73,-3.40,99.6
"2009-12-31 00:50:30",1549825,3.73,144,6.056,1.075,0.826,98.65431,-4.128,-2.893,56.53,0,109.3,13.73,-3.39,106.0
"2009-12-31 00:51:00",1549826,3.732,142.5,5.626,1.074,1.265,98.6529,-4.132,-2.822,56.69,0,109.3,13.73,-3.39,104.5
"2009-12-31 00:51:30",1549827,3.545,140.9,7.649,1.128,1.092,98.65289,-4.132,-2.805,56.71,0,109.3,13.73,-3.39,102.9
"2009-12-31 00:52:00",1549828,3.805,141.3,6.295,1.051,1.659,98.65203,-4.134,-2.776,57.05,0,109.3,13.73,-3.40,103.3
"2009-12-31 00:52:30",1549829,3.635,141.5,6.106,1.15,0.337,98.65287,-4.132,-2.824,57.06,0,109.3,13.73,-3.39,103.5
"2009-12-31 00:53:00",1549830,3.054,139.2,5.227,1.137,-0.455,98.6526,-4.133,-2.911,56.83,0,109.3,13.73,-3.40,101.2
"2009-12-31 00:53:30",1549831,3.623,144,6.333,1.116,1.014,98.65511,-4.126,-2.801,56.59,0,109.3,13.73,-3.39,106.0
"2009-12-31 00:54:00",1549832,3.931,144.9,5.49,1.109,1.482,98.65483,-4.127,-2.789,56.33,0,109.3,13.73,-3.39,106.9
"2009-12-31 00:54:30",1549833,3.671,142.4,6.505,1.179,1.092,98.6554,-4.126,-2.81,56.15,0,109.3,13.73,-3.39,104.4
"2009-12-31 00:55:00",1549834,4.201,146.4,5.557,1.003,1.601,98.65735,-4.121,-2.795,56.2,0,109.3,13.72,-3.38,108.4
"2009-12-31 00:55:30",1549835,4.092,144.6,6.109,1.147,0.747,98.65623,-4.124,-2.852,56.4,0,109.3,13.72,-3.39,106.6
"2009-12-31 00:56:00",1549836,3.736,140.4,5.419,1.175,-0.099,98.65678,-4.122,-2.915,56.73,0,109.3,13.72,-3.38,102.4
"2009-12-31 00:56:30",1549837,3.822,140.5,5.818,1.164,0.723,98.65651,-4.123,-2.877,56.94,0,109.3,13.72,-3.39,102.5
"2009-12-31 00:57:00",1549838,4.318,142.5,5.342,1.003,2.061,98.65623,-4.124,-2.809,57,0,109.3,13.72,-3.39,104.5
"2009-12-31 00:57:30",1549839,4.666,139,4.84,0.832,2.382,98.65678,-4.122,-2.804,57.12,0,109.3,13.72,-3.38,101.0
"2009-12-31 00:58:00",1549840,4.12,138.9,5.091,1.083,1.666,98.65735,-4.121,-2.81,57.25,0,109.3,13.72,-3.38,100.9
"2009-12-31 00:58:30",1549841,3.917,139.5,5.817,1.152,0.978,98.65819,-4.119,-2.809,57.33,0,109.3,13.72,-3.38,101.5
"2009-12-31 00:59:00",1549842,3.112,134.2,5.188,0.978,-0.974,98.65707,-4.121,-2.955,57.31,0,109.3,13.72,-3.38,96.2
"2009-12-31 00:59:30",1549843,4.349,139.9,5.46,0.989,1.729,98.66015,-4.114,-2.816,57.54,0,109.3,13.73,-3.38,101.9
"2009-12-31 01:00:00",1549844,3.922,139,5.913,1.181,1.073,98.65931,-4.116,-2.799,57.62,0,109.3,13.73,-3.38,101.0
"2009-12-31 01:00:30",1549845,4.943,143.8,3.213,0.631,2.812,98.66099,-4.111,-2.782,57.59,0,109.3,13.73,-3.37,105.8
"2009-12-31 01:01:00",1549846,4.476,140.9,5.775,1.017,1.78,98.66042,-4.113,-2.805,57.44,0,109.3,13.73,-3.38,102.9
"2009-12-31 01:01:30",1549847,4.412,141.7,5.801,1.022,1.409,98.66126,-4.111,-2.803,57.36,0,109.3,13.73,-3.37,103.7
"2009-12-31 01:02:00",1549848,3.629,138.4,5.583,1.162,-0.172,98.66463,-4.102,-2.968,57.08,0,109.3,13.73,-3.36,100.4
"2009-12-31 01:02:30",1549849,4.125,141.4,5.694,1.112,1.298,98.6635,-4.105,-2.858,57.17,0,109.3,13.73,-3.37,103.4
"2009-12-31 01:03:00",1549850,4.133,141.3,5.669,1.164,1.317,98.66267,-4.107,-2.89,57.14,0,109.3,13.73,-3.37,103.3
"2009-12-31 01:03:30",1549851,4.567,142.2,4.859,0.897,2.699,98.66267,-4.107,-2.772,57.25,0,109.3,13.73,-3.37,104.2
"2009-12-31 01:04:00",1549852,4.234,139.9,5.224,1.056,1.875,98.66238,-4.108,-2.792,57.36,0,109.3,13.73,-3.37,101.9
"2009-12-31 01:04:30",1549853,4.161,139.2,5.359,1.057,1.099,98.66406,-4.104,-2.797,57.48,0,109.3,13.73,-3.37,101.2
"2009-12-31 01:05:00",1549854,3.036,134.5,5.255,0.916,-1.019,98.66379,-4.104,-2.95,57.41,0,109.3,13.73,-3.37,96.5
"2009-12-31 01:05:30",1549855,4.197,137.9,6.007,1.169,1.126,98.6649,-4.101,-2.829,57.43,0,109.3,13.73,-3.36,99.9
"2009-12-31 01:06:00",1549856,4.292,138.2,5.834,1.122,1.267,98.66574,-4.099,-2.818,57.41,0,109.3,13.73,-3.36,100.2
"2009-12-31 01:06:30",1549857,4.965,142,2.529,0.61,2.581,98.6649,-4.101,-2.766,57.42,0,109.3,13.73,-3.36,104.0
"2009-12-31 01:07:00",1549858,5.015,140.6,3.451,0.655,2.423,98.66518,-4.101,-2.775,57.47,0,109.3,13.73,-3.36,102.6
"2009-12-31 01:07:30",1549859,4.309,136.5,6.075,1.112,0.764,98.6649,-4.101,-2.877,57.41,0,109.3,13.73,-3.36,98.5
"2009-12-31 01:08:00",1549860,3.562,132.5,5.205,1.029,-0.708,98.66546,-4.1,-2.851,57.5,0,109.3,13.73,-3.36,94.5
"2009-12-31 01:08:30",1549861,3.842,133.6,5.754,1.195,0.22,98.66574,-4.099,-2.863,57.5,0,109.3,13.73,-3.36,95.6
"2009-12-31 01:09:00",1549862,4.521,136,5.646,1.077,1.505,98.66602,-4.099,-2.853,57.54,0,109.4,13.73,-3.36,98.0
"2009-12-31 01:09:30",1549863,5.205,139,3.863,0.742,2.902,98.66686,-4.096,-2.756,57.7,0,109.3,13.73,-3.36,101.0
"2009-12-31 01:10:00",1549864,5.322,137,5.366,0.649,2.503,98.66686,-4.096,-2.806,57.71,0,109.3,13.73,-3.36,99.0
"2009-12-31 01:10:30",1549865,4.606,133.6,6.242,1.163,1.12,98.6649,-4.101,-2.809,57.72,0,109.3,13.73,-3.36,95.6
"2009-12-31 01:11:00",1549866,4.778,133.9,5.753,1.129,0.85,98.66546,-4.1,-2.877,57.67,0,109.3,13.73,-3.36,95.9
"2009-12-31 01:11:30",1549867,4.756,133,5.957,1.155,1.198,98.66574,-4.099,-2.813,57.8,0,109.3,13.73,-3.36,95.0
"2009-12-31 01:12:00",1549868,5.15,134.5,5.521,1.013,1.773,98.66574,-4.099,-2.848,57.79,0,109.3,13.73,-3.36,96.5
"2009-12-31 01:12:30",1549869,5.546,134.4,5.161,0.811,2.489,98.66659,-4.097,-2.793,57.84,0,109.3,13.73,-3.36,96.4
"2009-12-31 01:13:00",1549870,5.202,135.3,4.787,0.996,1.978,98.66574,-4.099,-2.799,57.87,0,109.3,13.73,-3.36,97.3
"2009-12-31 01:13:30",1549871,5.032,136.9,5.174,1.103,1.278,98.66574,-4.099,-2.81,57.92,0,109.3,13.73,-3.36,98.9
"2009-12-31 01:14:00",1549872,5.191,139.8,5.976,1.034,1.635,98.66602,-4.099,-2.852,57.93,0,109.3,13.73,-3.36,101.8
"2009-12-31 01:14:30",1549873,4.52,141.1,7.579,1.165,0.901,98.66574,-4.099,-2.877,57.89,0,109.3,13.73,-3.36,103.1
"2009-12-31 01:15:00",1549874,4.436,146.8,5.658,1.17,1.178,98.66602,-4.099,-2.812,57.98,0,109.3,13.73,-3.36,108.8
"2009-12-31 01:15:30",1549875,4.779,154.7,5.152,1.073,2.041,98.66574,-4.099,-2.794,58.22,0,109.3,13.73,-3.36,116.7
"2009-12-31 01:16:00",1549876,5.208,159.3,4.031,0.626,2.811,98.66686,-4.096,-2.746,58.93,0,109.3,13.73,-3.36,121.3
"2009-12-31 01:16:30",1549877,4.442,157.9,5.637,1.183,0.93,98.6677,-4.094,-2.864,59.05,0,109.3,13.73,-3.36,119.9
"2009-12-31 01:17:00",1549878,3.769,151.9,7.356,1.073,-0.223,98.6677,-4.094,-2.817,59.16,0,109.3,13.73,-3.36,113.9
"2009-12-31 01:17:30",1549879,4.581,154.7,6.14,1.054,1.388,98.66882,-4.091,-2.882,59.19,0,109.3,13.73,-3.35,116.7
"2009-12-31 01:18:00",1549880,4.245,155.5,6.582,1.154,1.263,98.66798,-4.094,-2.841,59.17,0,109.3,13.73,-3.36,117.5
"2009-12-31 01:18:30",1549881,4.594,153.8,7.083,1.072,1.531,98.6677,-4.094,-2.831,59.06,0,109.3,13.74,-3.36,115.8
"2009-12-31 01:19:00",1549882,4.995,158,4.685,0.891,2.555,98.6663,-4.098,-2.767,59,0,109.3,13.74,-3.36,120.0
"2009-12-31 01:19:30",1549883,4.725,150.9,5.506,0.895,2.116,98.66826,-4.093,-2.822,58.89,0,109.3,13.74,-3.36,112.9
"2009-12-31 01:20:00",1549884,4.316,145.7,5.673,1.127,1.214,98.66994,-4.089,-2.801,58.95,0,109.3,13.74,-3.35,107.7
"2009-12-31 01:20:30",1549885,3.853,142.3,7.392,1.153,-0.06,98.67134,-4.085,-2.982,58.81,0,109.3,13.74,-3.35,104.3
"2009-12-31 01:21:00",1549886,3.825,140,5.661,1.188,0.136,98.67162,-4.084,-2.842,58.95,0,109.3,13.74,-3.35,102.0
"2009-12-31 01:21:30",1549887,4.454,141.4,5.314,1.035,1.61,98.67078,-4.086,-2.728,58.98,0,109.3,13.74,-3.35,103.4
"2009-12-31 01:22:00",1549888,4.763,140,5,0.816,2.266,98.67106,-4.086,-2.747,58.89,0,109.3,13.74,-3.35,102.0
"2009-12-31 01:22:30",1549889,4.692,141.7,4.617,0.929,2.606,98.6719,-4.084,-2.759,58.81,0,109.3,13.74,-3.35,103.7
"2009-12-31 01:23:00",1549890,4.749,142.2,5.82,0.851,2.403,98.6719,-4.084,-2.727,58.84,0,109.3,13.74,-3.35,104.2
"2009-12-31 01:23:30",1549891,4.005,136.9,7.014,1.242,0.583,98.67245,-4.082,-2.91,58.75,0,109.3,13.74,-3.34,98.9
"2009-12-31 01:24:00",1549892,2.719,134,1.906,0.077,-1.34,98.67245,-4.082,-2.81,58.89,0,109.3,13.76,-3.34,96.0
"2009-12-31 01:24:30",1549893,4.563,143.9,5.603,0.996,1.401,98.67217,-4.083,-2.865,58.92,0,109.3,13.74,-3.35,105.9
"2009-12-31 01:25:00",1549894,4.716,144.2,4.695,0.897,2.604,98.67217,-4.083,-2.74,59.1,0,109.3,13.74,-3.35,106.2
"2009-12-31 01:25:30",1549895,4.931,151.1,3.377,0.671,2.854,98.67274,-4.082,-2.743,59.15,0,109.3,13.74,-3.34,113.1
"2009-12-31 01:26:00",1549896,4.77,149.3,5.663,0.922,2.226,98.67274,-4.082,-2.779,59.18,0,109.3,13.74,-3.34,111.3
"2009-12-31 01:26:30",1549897,3.969,148.3,6.113,1.098,0.43,98.67301,-4.081,-2.873,59.15,0,109.3,13.74,-3.34,110.3
"2009-12-31 01:27:00",1549898,3.263,147.1,3.803,0.802,-1.503,98.67301,-4.081,-3.003,59.03,0,109.3,13.74,-3.34,109.1
"2009-12-31 01:27:30",1549899,3.862,149.5,6.185,1.145,0.218,98.67274,-4.082,-2.899,59.14,0,109.3,13.74,-3.34,111.5
"2009-12-31 01:28:00",1549900,4.974,157.3,4.808,0.76,2.61,98.67301,-4.081,-2.782,59.26,0,109.3,13.74,-3.34,119.3
"2009-12-31 01:28:30",1549901,5.082,158.2,3.874,0.726,3.041,98.67274,-4.082,-2.743,59.23,0,109.3,13.74,-3.34,120.2
"2009-12-31 01:29:00",1549902,5.154,158.4,3.142,0.751,2.841,98.67301,-4.081,-2.729,59.19,0,109.3,13.74,-3.34,120.4
"2009-12-31 01:29:30",1549903,4.4,149.7,6.473,1.139,0.655,98.67301,-4.081,-2.82,59.13,0,109.3,13.74,-3.34,111.7
"2009-12-31 01:30:00",1549904,4.276,147.8,7.865,1.142,0.349,98.67301,-4.081,-2.923,58.98,0,109.3,13.74,-3.34,109.8
"2009-12-31 01:30:30",1549905,4.864,146.3,6.512,1.032,0.543,98.67301,-4.081,-2.883,58.98,0,109.3,13.74,-3.34,108.3
"2009-12-31 01:31:00",1549906,4.611,146.5,6.313,1.153,1.933,98.67301,-4.081,-2.82,58.97,0,109.3,13.74,-3.34,108.5
"2009-12-31 01:31:30",1549907,5.068,145.2,3.443,0.719,2.864,98.67301,-4.081,-2.744,59.14,0,109.3,13.74,-3.34,107.2
"2009-12-31 01:32:00",1549908,4.867,143.7,3.674,0.76,2.849,98.67301,-4.081,-2.731,59.33,0,109.3,13.74,-3.34,105.7
"2009-12-31 01:32:30",1549909,4.39,138.5,5.897,1.214,1.583,98.67301,-4.081,-2.816,59.35,0,109.3,13.74,-3.34,100.5
"2009-12-31 01:33:00",1549910,4.131,137.2,7.438,1.171,0.603,98.67301,-4.081,-2.784,59.41,0,109.3,13.74,-3.34,99.2
"2009-12-31 01:33:30",1549911,4.174,138.8,6.21,1.051,-0.249,98.67301,-4.081,-2.968,59.29,0,109.3,13.74,-3.34,100.8
"2009-12-31 01:34:00",1549912,4.549,141,5.447,1.147,1.4,98.67301,-4.081,-2.809,59.45,0,109.3,13.74,-3.34,103.0
"2009-12-31 01:34:30",1549913,5.227,144.2,5.533,0.675,2.719,98.67301,-4.081,-2.772,59.5,0,109.3,13.74,-3.34,106.2
"2009-12-31 01:35:00",1549914,5.454,145.3,3.591,0.677,3.15,98.67301,-4.081,-2.755,59.42,0,109.3,13.74,-3.34,107.3
"2009-12-31 01:35:30",1549915,5.366,146,2.703,0.719,2.703,98.67301,-4.081,-2.739,59.39,0,109.3,13.74,-3.34,108.0
"2009-12-31 01:36:00",1549916,4.634,140.6,6.59,1.083,0.681,98.67301,-4.081,-2.838,59.2,0,109.3,13.74,-3.34,102.6
"2009-12-31 01:36:30",1549917,4.324,140.6,5.759,1.05,-0.002,98.67301,-4.081,-2.893,58.94,0,109.3,13.74,-3.34,102.6
"2009-12-31 01:37:00",1549918,4.421,139,5.745,1.142,0.745,98.67301,-4.081,-2.839,59,0,109.3,13.74,-3.34,101.0
"2009-12-31 01:37:30",1549919,5.273,145.9,5.159,0.889,2.756,98.67301,-4.081,-2.734,59.28,0,109.3,13.74,-3.34,107.9
"2009-12-31 01:38:00",1549920,5.228,143.7,3.731,0.729,3.066,98.67301,-4.081,-2.737,59.47,0,109.3,13.74,-3.34,105.7
"2009-12-31 01:38:30",1549921,5.249,145.4,3.896,0.599,2.602,98.67301,-4.081,-2.759,59.64,0,109.3,13.74,-3.34,107.4
"2009-12-31 01:39:00",1549922,4.648,142,6.601,1.117,1.108,98.67301,-4.081,-2.816,59.57,0,109.3,13.74,-3.34,104.0
"2009-12-31 01:39:30",1549923,3.948,134,5.758,1.073,-0.767,98.67301,-4.081,-3.004,59.49,0,109.3,13.74,-3.34,96.0
"2009-12-31 01:40:00",1549924,4.404,141,5.198,1.095,1.45,98.67301,-4.081,-2.767,59.84,0,109.3,13.74,-3.34,103.0
"2009-12-31 01:40:30",1549925,5.207,141.6,4.71,0.813,2.677,98.67301,-4.081,-2.767,59.86,0,109.3,13.74,-3.34,103.6
"2009-12-31 01:41:00",1549926,5.087,141.3,4.918,0.908,2.697,98.67301,-4.081,-2.79,59.99,0,109.3,13.74,-3.34,103.3
"2009-12-31 01:41:30",1549927,5.371,141.5,3.761,0.633,3.025,98.67301,-4.081,-2.759,60.16,0,109.3,13.74,-3.34,103.5
"2009-12-31 01:42:00",1549928,5.18,141.5,4.046,0.744,2.681,98.67301,-4.081,-2.754,60.27,0,109.3,13.74,-3.34,103.5
"2009-12-31 01:42:30",1549929,5.132,142,3.237,0.82,2.201,98.67301,-4.081,-2.748,60.3,0,109.3,13.74,-3.34,104.0
"2009-12-31 01:43:00",1549930,3.424,131.9,5.382,0.876,-0.7,98.67273,-4.082,-2.87,60.18,0,109.3,13.74,-3.34,93.9
"2009-12-31 01:43:30",1549931,4.061,134.5,6.441,1.176,0.011,98.6716,-4.084,-2.89,60.24,0,109.3,13.74,-3.35,96.5
"2009-12-31 01:44:00",1549932,4.197,133.8,6.014,1.144,0.494,98.66394,-4.104,-2.913,60.28,0,109.3,13.74,-3.37,95.8
"2009-12-31 01:44:30",1549933,5.294,137.7,3.685,0.617,2.892,98.65798,-4.119,-2.76,60.36,0,109.3,13.74,-3.38,99.7
"2009-12-31 01:45:00",1549934,5.135,137.4,3.428,0.811,2.935,98.65487,-4.127,-2.772,60.44,0,109.4,13.74,-3.39,99.4